Regional Weather Roundup
Issued by NWS

Home | Current Version | Previous Version | Text Only | Print | Product List | Glossary On
Versions: 1 2 3 4 5 6 7 8 9 10 11 12 13 14 15 16 17 18 19 20 21 22 23 24 25 26 27 28 29 30 31 32 33 34 35 36 37 38 39 40 41 42 43 44 45 46 47 48 49 50
291
ASUS45 KPSR 251310
RWRAZ

ARIZONA HOURLY REGIONAL WEATHER ROUNDUP
NATIONAL WEATHER SERVICE PHOENIX AZ
600 AM MST WED APR 25 2018

NOTE: FAIR INDICATES FEW OR NO CLOUDS BELOW 12,000 FEET WITH NO
SIGNIFICANT WEATHER AND/OR OBSTRUCTIONS TO VISIBILITY.

AZZ001>003-036-251400-
NORTHWEST ARIZONA

CITY           SKY/WX    TMP DP  RH WIND       PRES   REMARKS
BULLHEAD CITY  CLEAR     79  23  12 N14       29.92R
KINGMAN        CLEAR     52  19  27 CALM      30.06R
$$

AZZ004>008-015-016-018-251400-
NORTH CENTRAL ARIZONA

CITY           SKY/WX    TMP DP  RH WIND       PRES   REMARKS
GRAND CANYON   CLEAR     51  17  26 E12       30.26R
WILLIAMS       CLEAR     41  18  38 S9        30.23R
PRESCOTT       CLEAR     47  24  40 S5        30.16R
FLAGSTAFF      CLEAR     49  17  28 E9        30.28R
PAYSON         CLEAR     59  18  20 NE9       30.16R
PAGE           PTCLDY    57  18  21 NE3       30.22R
$$

AZZ009>014-017-251400-
NORTHEAST ARIZONA

CITY           SKY/WX    TMP DP  RH WIND       PRES   REMARKS
WINSLOW        CLEAR     47  16  29 W3        30.21R
SAINT JOHNS    CLEAR     42  18  37 CALM      30.19R
WINDOW ROCK    PTCLDY    33  12  41 CALM      30.27R
SHOW LOW       CLEAR     48  16  27 NW3       30.25R
$$

AZZ540-542>544-546-548-251400-
GREATER PHOENIX AREA

CITY           SKY/WX    TMP DP  RH WIND       PRES   REMARKS
PHOENIX        PTCLDY    70  31  23 E5        29.92R
BUCKEYE        CLEAR     66  25  20 NE5       29.93R
GLENDALE       CLEAR     68  30  24 N6        29.94
LUKE AFB       CLEAR     65  34  32 N5        29.92R
DEER VALLEY    CLEAR     66  27  23 CALM      29.94R
SCOTTSDALE     CLEAR     67  33  28 CALM      29.95R
MESA-FALCON    PTCLDY    70  25  18 NE9       29.95
MESA-GATEWAY   PTCLDY    63  27  25 SE9       29.96R
CHANDLER       CLEAR     63  34  34 CALM      29.94
$$

AZZ539-553-251400-
SOUTHWEST MARICOPA COUNTY AND PINAL COUNTY

CITY           SKY/WX    TMP DP  RH WIND       PRES   REMARKS
CASA GRANDE    CLEAR     63  26  24 CALM      29.96R
GILA BEND      FAIR      65  21  18 E5        29.91R
$$

AZZ503-504-507>509-251400-
SOUTHEAST ARIZONA

CITY           SKY/WX    TMP DP  RH WIND       PRES   REMARKS
TUCSON         CLEAR     61  22  22 SE8       30.04R
DAVIS-MONTHAN  CLEAR     59  22  24 S7        30.02R
RYAN FIELD     CLEAR     57  21  24 CALM      30.03
NOGALES        PTCLDY    58  22  24 CALM      30.09R
SIERRA VISTA   CLEAR     62  24  23 SW7       30.14
DOUGLAS        MOCLDY    60  16  18 S3        30.11R
SAFFORD        CLEAR     57  15  19 NE6       30.04R
$$

AZZ532-251400-
SOUTHWEST ARIZONA

CITY           SKY/WX    TMP DP  RH WIND       PRES   REMARKS
YUMA           CLEAR     67  38  34 NE3       29.89R
$$

CAZ041-043-047-048-061-525>527-560>570-251400-
SOUTHERN CALIFORNIA

CITY           SKY/WX    TMP DP  RH WIND       PRES   REMARKS
DOWNTOWN L.A.  CLOUDY    57  51  80 VRB3      30.05S HAZE
L.A. AIRPORT   CLOUDY    56  50  80 CALM      30.06S
SAN DIEGO      CLOUDY    57  51  80 NE5       30.07S
BURBANK        MOCLDY    54  53  97 S6        30.04S FOG
ONTARIO        MOCLDY    52  48  86 CALM      30.05F FOG
RIVERSIDE      CLEAR     52  48  86 E3        30.06S
PALM SPRINGS   CLEAR     67  40  37 VRB5      29.92R
EL CENTRO NAS  PTCLDY    67  21  17 W3        29.89R
IMPERIAL       CLEAR     66  33  29 W6        29.87R
BLYTHE         CLEAR     66  32  28 N7        29.89R
NEEDLES        CLEAR     72  25  17 CALM      29.93R
$$

NVZ020-UTZ003-251400-
SOUTHERN NEVADA-UTAH

CITY           SKY/WX    TMP DP  RH WIND       PRES   REMARKS
LAS VEGAS      PTCLDY    72  25  17 E7        30.03R
SALT LAKE CITY MOCLDY    50  25  37 SE9       30.24S
$$

NMZ009-TXZ055-251400-
NEW MEXICO-WEST TEXAS

CITY           SKY/WX    TMP DP  RH WIND       PRES   REMARKS
ALBUQUERQUE    PTCLDY    46  32  58 E24       30.26R
EL PASO        MOCLDY    54  39  57 E8        30.18R
$$


........................KEY........................
SKY/WX - SKY CONDITION/WEATHER
TMP    - TEMPERATURE IN FAHRENHEIT
DP     - DEW POINT IN FAHRENHEIT
RH     - RELATIVE HUMIDITY IN PERCENT
WIND   - DIRECTION AND SPEED IN MILES PER HOUR (MPH)
VRB    - VARIABLE WIND DIRECTION
PRES   - MEAN SEA LEVEL PRESSURE IN INCHES OF MERCURY
         F - FALLING PRESSURE   R - RISING PRESSURE
         S - STEADY PRESSURE
VSB    - VISIBILITY IN MILES
HX     - HEAT INDEX IN FAHRENHEIT
WCI    - WIND CHILL INDEX IN FAHRENHEIT
TC     - TEMPERATURE IN CELSIUS WHICH IS ALSO KNOWN AS
         TEMPERATURE IN CENTIGRADE
AFB    - AIR FORCE BASE
         LUKE AFB IS LUKE AIR FORCE BASE
         DAVIS-MONTHAN IS DAVIS-MONTHAN AIR FORCE BASE
NAS    - NAVAL AIR STATION
         EL CENTRO NAS IS EL CENTRO NAVAL AIR STATION
N/A    - NOT AVAILABLE





USA.gov is the U.S. government's official web portal to all federal, state and local government web resources and services.